Flag for Malaysia Weather past 2 weeks in Johor Bahru, Malaysia

Now
86 °F

Partly sunny.


Feels Like: 95 °F
Forecast: 76 / 88 °F
Wind: 8 mph from Southwest

Location: Singapore / Paya Lebar

Current Time: Aug 29, 2014 at 1:45:54 PM

Latest Report: Aug 29, 2014 at 1:00 PM


Visibility: N/A

Pressure: 29.86 "Hg

Humidity: 70%

Dew point: 75 °F

Location of Johor BahruLocation

Historic Weather in Johor Bahru — Graph

°F

Johor Bahru temperature yesterday

Maximum temperature yesterday: 84 °F (at 10:00 AM)
Minimum temperature yesterday: 75 °F (at 12:00 PM)
Average temperature yesterday: 80 °F

Past Weeks' High & Low Weather Summary

 TemperatureHumidityPressure
High91 °F (Aug 23, 1:00 PM)100% (Aug 14, 2:00 PM)29.92 "Hg (Aug 14, 2:00 PM)
Low73 °F (Aug 27, 7:00 AM)56% (Aug 23, 1:00 PM)29.74 "Hg (Aug 22, 4:00 PM)
Average83 °F78%29.83 "Hg
* Reported Aug 14 1:00 PM — Aug 29 1:00 PM, Johor Bahru, Weather by CustomWeather, © 2014

Note: Actual official high and low records may vary slightly from our data, if they occured in-between our weather recording intervals... More about our weather records

Advertising

Johor Bahru weather history for previous 24 hours

 ConditionsComfort  
Time TempWeatherWind HumidityBarometerVisibility
1:00 PM
Aug 29
86 °FPartly sunny.8 mph70%29.86 "HgN/A
12:00 PM86 °FPartly sunny.6 mph70%29.86 "HgN/A
11:00 AM84 °FPartly sunny.8 mph74%29.89 "HgN/A
10:00 AM82 °FScattered clouds.6 mph79%29.89 "HgN/A
9:00 AM82 °FPartly sunny.7 mph79%29.86 "HgN/A
8:00 AM79 °FPartly sunny.1 mph89%29.83 "HgN/A
7:00 AM79 °FPassing clouds.1 mph89%29.83 "HgN/A
6:00 AM79 °FPassing clouds.1 mph89%29.83 "HgN/A
5:00 AM79 °FPassing clouds.1 mph89%29.83 "HgN/A
11:00 PM
Aug 28
81 °FLight rain. Passing clouds.5 mph84%29.86 "HgN/A
10:00 PM81 °FPassing clouds.5 mph84%29.86 "HgN/A
9:00 PM81 °FPassing clouds.1 mph79%29.83 "HgN/A
8:00 PM82 °FPassing clouds.2 mph70%29.83 "HgN/A
7:00 PM82 °FPartly sunny.2 mph74%29.77 "HgN/A
6:00 PM82 °FPartly sunny.3 mph74%29.77 "HgN/A
5:00 PM81 °FPartly sunny.5 mph79%29.77 "HgN/A
4:00 PM81 °FPartly sunny.6 mph84%29.80 "HgN/A
3:00 PM79 °FPartly sunny.5 mph84%29.80 "HgN/A
2:00 PM79 °FBroken clouds.6 mph84%29.83 "HgN/A
1:00 PM75 °FLight rain. Broken clouds.8 mph94%29.86 "Hg5 mi
Weather by CustomWeather, © 2014

See weather overviewHow to use our weather pages